Flag for Canada Weather past 2 weeks in Coquitlam, British Columbia, Canada

Now
58 °F

Cool.


Feels Like: 58 °F
Forecast: 53 / 66 °F
Wind: 1 mph from West

Location: P. Meadows Coastal Station

Current Time: May 24, 2015 at 10:48:22 PM

Latest Report: May 24, 2015 at 10:00 PM


Visibility: N/A

Pressure: 29.99 "Hg

Humidity: 77%

Dew point: 51 °F

Location of CoquitlamLocation

Historic Weather in Coquitlam — Graph

°F

Coquitlam temperature yesterday

Maximum temperature yesterday: 62 °F (at 5:00 PM)
Minimum temperature yesterday: 56 °F (at 12:00 PM)
Average temperature yesterday: 59 °F

Past Weeks' High & Low Weather Summary

 TemperatureHumidityPressure
High79 °F (May 21, 4:00 PM)98% (May 22, 5:00 AM)30.18 "Hg (May 22, 5:00 AM)
Low49 °F (May 10, 5:00 AM)37% (May 18, 6:00 PM)29.77 "Hg (May 21, 5:00 PM)
Average61 °F72%29.96 "Hg
* Reported May 9 10:00 PM — May 24 10:00 PM, Coquitlam, Weather by CustomWeather, © 2015

Note: Actual official high and low records may vary slightly from our data, if they occured in-between our weather recording intervals... More about our weather records

Advertising

Coquitlam weather history for previous 24 hours

 ConditionsComfort  
Time TempWeatherWind HumidityBarometerVisibility
10:00 PM
Sun, May 24
58 °FCool.1 mph77%29.99 "HgN/A
9:00 PM59 °FCool.2 mph73%29.99 "HgN/A
8:00 PM62 °FCool.5 mph67%29.99 "HgN/A
7:00 PM63 °FMild.3 mph65%29.99 "HgN/A
6:00 PM65 °FMild.2 mph66%30.00 "HgN/A
5:00 PM65 °FMild.3 mph66%30.01 "HgN/A
4:00 PM65 °FMild.1 mph64%30.03 "HgN/A
3:00 PM62 °FCool.1 mph74%30.05 "HgN/A
2:00 PM62 °FCool.3 mph72%30.07 "HgN/A
1:00 PM62 °FMild.2 mph68%30.08 "HgN/A
12:00 PM61 °FCool.1 mph72%30.10 "HgN/A
11:00 AM60 °FCool.1 mph78%30.11 "HgN/A
10:00 AM58 °FCool.5 mph79%30.11 "HgN/A
9:00 AM56 °FCool.1 mph83%30.13 "HgN/A
8:00 AM56 °FCool.2 mph87%30.14 "HgN/A
7:00 AM55 °FCool.1 mph86%30.14 "HgN/A
6:00 AM55 °FCool.3 mph79%30.14 "HgN/A
5:00 AM56 °FCool.2 mph85%30.14 "HgN/A
4:00 AM56 °FCool.1 mph85%30.14 "HgN/A
3:00 AM56 °FCool.3 mph85%30.15 "HgN/A
2:00 AM57 °FCool.3 mph84%30.15 "HgN/A
1:00 AM58 °FCool.1 mph82%30.16 "HgN/A
12:00 AM58 °FCool.No wind82%30.16 "HgN/A
11:00 PM
Sat, May 23
58 °FCool.2 mph82%30.16 "HgN/A
10:00 PM58 °FCool.1 mph81%30.15 "HgN/A
Weather by CustomWeather, © 2015

See weather overviewHow to use our weather pages